#timestamp,LO_Frequency,Hit,StdDev 
1562641215.7,286047000.0,N
1562641235.5,286046998.2,N
1562641255.4,286046998.1,N
1562641275.2,286046999.0,N
1562641295.0,286047000.8,N
1562641295.9,286047000.8,N
1562641315.8,286047000.8,N
1562641335.6,286047000.5,N
1562641355.4,286047002.8,N
1562641375.3,286047002.4,N
1562641395.1,286046998.9,N
1562641415.9,286046996.9,N
1562641435.7,286046998.3,N
1562641455.5,286046998.9,N
1562641475.4,286047001.2,N
1562641495.2,286046998.7,N
1562641515.0,286046998.3,N
1562641516.0,286046998.3,N
1562641535.8,286047001.2,N
1562641555.6,286047000.0,N
1562641575.5,286047002.4,N
1562641595.3,286047002.0,N
1562641615.1,286047002.5,N
1562641635.9,286047001.3,N
1562641655.7,286047000.5,N
1562641675.6,286047001.1,N
1562641695.4,286046999.8,N
1562641715.2,286047000.5,N
1562641735.1,286047000.9,N
1562641736.0,286047000.9,N
1562641755.8,286047000.9,N
1562641775.6,286047001.0,N
1562641795.5,286046998.3,N
1562641815.3,286047000.8,N
1562641835.2,286047000.6,N
1562641855.0,286046999.8,N
1562641855.9,286046999.8,N
1562641875.7,286047001.1,N
1562641895.6,286047002.3,N
1562641915.4,286047004.0,N
1562641935.3,286047002.2,N
1562641955.1,286047002.8,N
1562641975.8,286047000.9,N
1562641995.7,286047000.8,N
1562642015.5,286047000.1,N
1562642035.4,286047001.5,N
1562642055.2,286047003.1,N
1562642075.0,286047005.8,Y
1562642075.9,286047005.8,P
1562642095.8,286047001.6,N
1562642115.6,286046999.8,N
1562642135.4,286046999.8,N
1562642155.3,286047000.5,N
1562642175.1,286047002.4,N
1562642195.9,286046999.9,N
1562642215.7,286046999.9,N
1562642235.5,286046999.8,N
1562642255.4,286047002.8,N
1562642275.2,286047001.2,N
1562642295.1,286047001.7,N
1562642296.0,286047001.7,N
1562642315.8,286047004.2,N
1562642335.6,286047001.4,N
1562642355.5,286047002.0,N
1562642375.3,286047003.6,N
1562642395.1,286047004.0,N
1562642415.9,286047002.4,N
1562642435.7,286047001.9,N
1562642455.6,286047001.5,N
1562642475.4,286047004.2,N
1562642495.2,286047001.7,N
1562642515.1,286047004.3,N
1562642516.0,286047004.3,N
1562642535.8,286047001.8,N
1562642555.7,286047000.4,N
1562642575.5,286047002.0,N
1562642595.3,286047001.5,N
1562642615.2,286047001.5,N
1562642635.0,286046999.8,N
1562642635.9,286046999.8,N
1562642655.7,286047002.0,N
1562642675.6,286047001.6,N
1562642695.4,286047002.2,N
1562642715.3,286047002.5,N
1562642735.1,286046999.8,N
1562642755.8,286047002.0,N
1562642775.7,286047002.0,N
1562642795.5,286047002.4,N
1562642815.4,286047001.9,N
1562642835.2,286047004.3,Y
1562642855.0,286047001.0,P
1562642855.9,286047001.0,N
1562642875.8,286047000.7,N
1562642895.6,286046998.6,N
1562642915.5,286047000.5,N
1562642935.3,286047001.9,N
1562642955.1,286047000.2,N
1562642975.9,286047002.2,N
1562642995.7,286047002.4,N
1562643015.5,286047002.6,N
1562643035.4,286047000.1,N
1562643055.2,286047002.3,N
1562643075.1,286047002.7,N
1562643076.0,286047002.7,N
1562643095.8,286047001.8,N
1562643115.6,286047002.1,N
1562643135.5,286047002.0,N
1562643155.3,286047002.6,N
1562643175.1,286047002.8,N
1562643195.9,286047001.9,N
1562643215.7,286047001.4,N
1562643235.6,286047002.0,N
1562643255.4,286047001.0,N
1562643275.2,286046999.9,N
1562643295.1,286047000.1,N
1562643296.0,286047000.1,N
1562643315.8,286047002.8,N
1562643335.7,286047002.4,N
1562643355.5,286047002.2,N
1562643375.3,286047002.1,N
1562643395.2,286047002.6,N
1562643415.0,286047004.0,Y
1562643415.9,286047004.0,P
1562643435.8,286047000.4,N
1562643455.6,286047000.9,N
1562643475.4,286047000.5,N
1562643495.3,286047000.7,N
1562643515.1,286046999.4,N
1562643535.9,286046998.5,N
1562643555.7,286047000.4,N
1562643575.5,286047001.0,N
1562643595.4,286047000.8,N
1562643615.2,286047001.0,N
1562643635.0,286047000.8,N
1562643636.0,286047000.8,N
1562643655.8,286047000.0,N
1562643675.6,286047001.9,N
1562643695.5,286047002.7,N
1562643715.3,286047000.1,N
1562643735.1,286046999.7,N
1562643755.9,286047002.2,N
1562643775.7,286047002.5,N
1562643795.6,286047000.9,N
1562643815.4,286047000.6,N
1562643835.2,286047001.5,N
1562643855.1,286047002.3,N
1562643856.0,286047002.3,N
1562643875.8,286047004.3,Y
1562643895.6,286047002.3,P
1562643915.5,286047001.6,N
1562643935.3,286047002.5,P
1562643955.2,286047002.3,Y
1562643975.0,286046998.1,P
1562643975.9,286046998.1,N
1562643995.7,286046999.0,N
1562644015.6,286046997.1,N
1562644035.4,286046997.5,N
1562644055.3,286046996.6,N
1562644075.1,286046997.4,N
1562644095.8,286046997.6,N
1562644115.7,286046995.0,Y
1562644135.5,286046999.3,P
1562644155.4,286046996.7,P
1562644175.2,286046999.5,N
1562644195.0,286046997.2,N
1562644195.9,286046997.2,N
1562644215.8,286046999.6,N
1562644235.6,286046999.4,N
1562644255.5,286046998.7,N
1562644275.3,286046998.7,N
1562644295.1,286046998.2,N
1562644315.9,286047001.2,N
1562644335.7,286046998.3,N
1562644355.5,286046998.6,N
1562644375.4,286046999.3,N
1562644395.2,286046999.5,N
1562644415.1,286046997.0,N
1562644416.0,286046997.0,N
1562644435.8,286046999.1,N
1562644455.6,286046996.6,Y
1562644475.5,286047000.9,P
1562644495.3,286046998.9,N
1562644515.1,286046996.8,P
1562644535.9,286046996.9,N
1562644555.7,286046996.9,N
1562644575.6,286046997.0,N
1562644595.4,286046997.1,N
1562644615.2,286046997.3,N
1562644635.1,286046996.8,N
1562644636.0,286046996.8,N
1562644655.8,286046999.4,N
1562644675.7,286046998.8,N
1562644695.5,286046996.9,N
1562644715.3,286046999.3,N
1562644735.2,286046999.0,N
1562644755.0,286046999.5,N
1562644755.9,286046999.5,N
1562644775.8,286046999.3,N
1562644795.8,286046998.6,N
